Location: Mascot Post Office (historical)
(40.2645°N, 99.5462°W)
Time: 17:27:40
(UTC+00:00)

H-2A R/B (2) - Pass Details

Date: 14 July 2020
Orbit: 452 x 34390 km, 28.4° (Epoch: 04 August)

Event Time Altitude Azimuth Distance (km) Brightness Sun altitude
Exits shadow 10:31:40 - 209° (SSW) 2,100 3.7 -8.6°
Reaches altitude 10° 10:32:20 10° 200° (SSW) 1,882 3.5 -8.5°
Maximum altitude 10:33:28 11° 180° (S) 1,643 3.4 -8.4°
Drops below altitude 10° 10:34:28 10° 160° (SSE) 1,617 3.5 -8.2°
Sets 10:37:36 0° 116° (ESE) 2,537 5.1 -7.7°
